Погода в Красавино

Россия / Вологодская область     60°28′01″N   44°28′57″E
темп.,
°C
ветер,
м/с
пор.,
м/с
влажн.,
%
обл.,
%
осадки,
мм/ч
давл.,
гПа
погр.,
м
25 февраля, чт
чт2500:00−18ю31091100 0.0 1026378
03:00−17ю41096100 0.2 1023472
06:00−17ююв51195100 0.9 1018566
09:00−17ююв41095100 2.5 1016587
12:00−15ююв4891100 0.8 1014641
15:00−14ююв4791100 1.1 1015683
18:00−15ююв3794100 0.3 1014493
21:00−17ююв389499 0.3 1014333
26 февраля, пт
пт2600:00−18юв389670 0.0 1014229
03:00−19ююв389674 0.0 1014258
06:00−20ююв3109663 0.0 1012273
09:00−18ююв4109377 0.0 1011351
12:00−15юв51091100 0.0 1007449
15:00−13юв51191100 0.1 1005490
18:00−14вюв51294100 0.8 1002538
21:00−14вюв51094100 2.4 1001614
27 февраля, сб
сб2700:00−14вюв4993100 0.3 1001601
03:00−15в4894100 0.6 1002580
06:00−16всв3893100 0.1 1003494
09:00−17всв3793100 0.2 1005401
12:00−15всв3690100 0.0 1007490
15:00−14св3590100 0.1 1009529
18:00−17ссв2397100 0.0 101064
21:00−20ссв239877 0.1 101324
28 февраля, вс
вс2800:00−21с23980 0.0 101328
03:00−22с22981 0.0 101520
06:00−22с22982 0.0 101520
09:00−19сз12952 0.0 1016117
12:00−13ссз238780 0.0 1017394
15:00−11ссз138890 0.1 1017494
18:00−14сз1297100 0.1 101820
21:00−15з129898 0.1 101920
1 марта, пн
пн100:00−14зюз129787 0.1 102020
03:00−14юз229892 0.1 102031
06:00−13юз239891 0.0 102069
09:00−8юз499589 0.1 1018280
12:00−5юз4895100 0.1 1016350
15:00−2зюз51094100 0.4 1013655
18:000зюз51294100 0.5 1009883
21:000з51198100 1.1 1007679